Location: Vinland
(47.7731°N, 122.6974°W)
Time: 04:39:14
(UTC+00:00)

Vanguard 2 - Pass Details

Date: 26 April 2024
Orbit: 552 x 2914 km, 32.9° (Epoch: 25 May)

Event Time Altitude Azimuth Distance (km) Brightness Sun altitude
Exits shadow 10:38:16 23° 238° (WSW) 4,157 10.7 -20.0°
Maximum altitude 10:48:07 47° 181° (S) 3,439 10.4 -19.0°
Drops below altitude 10° 11:04:24 10° 116° (ESE) 5,657 12.2 -17.1°
Sets 11:08:49 0° 111° (ESE) 6,542 12.6 -16.6°
